Fort Lauderdale, FL

1:21 AM EST on December 11, 2019 (GMT -0500)
Fort Lauderdale Executive

Weather History for KFXE - October, 2019

Change the Weather History Date:

Saturday, October 26, 2019

  Actual Average Record
Temperature  
Mean Temperature 80 °F -  
Max Temperature 87 °F 85 °F 91 °F (2018)
Min Temperature 75 °F 66 °F 54 °F (1990)
Cooling Degree Days 16    
Growing Degree Days 30 (Base 50)    
Moisture  
Dew Point 75 °F    
Average Humidity 89    
Maximum Humidity 96    
Minimum Humidity 72    
Precipitation  
Precipitation 0.97 in - - ()
Sea Level Pressure  
Sea Level Pressure 29.96 in    
Wind  
Wind Speed 8 mph ()    
Max Wind Speed 22 mph    
Max Gust Speed 29 mph    
Visibility 8.2 miles    
Events Rain , Thunderstorm    
Averages and records for this station are not official NWS values.
T = Trace of Precipitation, MM = Missing Value Source: Averaged Metar Reports

Daily Weather History Graph

Daily Weather History Graph

Search for Another Location

Airport or City:

Astronomy

Oct. 26, 2019 Rise Set
Actual Time 7:25 AM EDT 6:43 PM EDT
Civil Twilight 7:02 AM EDT 7:06 PM EDT
Nautical Twilight 6:35 AM EDT 7:33 PM EDT
Astronomical Twilight 6:08 AM EDT 8:00 PM EDT
Moon 5:38 AM EDT (10/26) 6:02 PM EDT (10/26)
Length of Visible Light 12h 04m
Length of Day
11h 17m
Waning Crescent, 3% of the Moon is Illuminated
Oct 26
Waning Crescent
Oct 27
New
Nov 4
First Quarter
Nov 12
Full
Nov 19
Last Quarter

Hourly Weather History & Observations

Time (EDT) Temp. Heat Index Dew Point Humidity Pressure Visibility Wind Dir Wind Speed Gust Speed Precip Events Conditions
12:53 AM 78.1 °F - 75.0 °F 90% 29.98 in 10.0 mi East 6.9 mph - N/A Thunderstorm Scattered Clouds
1:08 AM 78.1 °F - 75.0 °F 90% 29.97 in 9.0 mi ENE 6.9 mph - 0.01 in Rain Light Rain
1:53 AM 77.0 °F - 75.9 °F 96% 29.97 in 10.0 mi NNW 3.5 mph - 0.01 in   Mostly Cloudy
2:08 AM 78.1 °F - 75.0 °F 90% 29.96 in 10.0 mi East 6.9 mph - N/A   Mostly Cloudy
2:53 AM 79.0 °F - 75.9 °F 90% 29.96 in 9.0 mi East 9.2 mph - 0.01 in Rain Light Rain
3:16 AM 79.0 °F - 75.9 °F 90% 29.94 in 10.0 mi ESE 5.8 mph - 0.00 in   Scattered Clouds
3:26 AM 78.1 °F - 73.9 °F 87% 29.95 in 10.0 mi ESE 21.9 mph 26.5 mph 0.00 in Rain Light Rain
3:33 AM 75.0 °F - 71.1 °F 87% 29.95 in 8.0 mi ESE 11.5 mph 26.5 mph 0.01 in Rain Rain
3:53 AM 75.0 °F - 72.0 °F 90% 29.95 in 10.0 mi ESE 6.9 mph - 0.02 in Rain Light Rain
4:53 AM 75.9 °F - 73.9 °F 94% 29.95 in 10.0 mi SSE 3.5 mph - 0.01 in   Mostly Cloudy
5:53 AM 75.0 °F - 73.0 °F 94% 29.94 in 10.0 mi North 5.8 mph - N/A   Scattered Clouds
6:16 AM 77.0 °F - 75.0 °F 94% 29.94 in 10.0 mi ENE 8.1 mph - N/A   Mostly Cloudy
6:28 AM 77.0 °F - 75.0 °F 94% 29.93 in 10.0 mi ENE 8.1 mph - N/A   Scattered Clouds
6:53 AM 78.1 °F - 75.9 °F 93% 29.94 in 10.0 mi ENE 9.2 mph - N/A   Scattered Clouds
7:53 AM 78.1 °F - 75.0 °F 90% 29.94 in 10.0 mi ESE 11.5 mph - 0.01 in   Mostly Cloudy
8:53 AM 80.1 °F 85.4 °F 75.9 °F 87% 29.96 in 10.0 mi SE 11.5 mph - N/A   Scattered Clouds
9:53 AM 82.0 °F 88.6 °F 75.0 °F 79% 29.97 in 10.0 mi SE 12.7 mph 20.7 mph N/A   Scattered Clouds
10:53 AM 82.9 °F 90.8 °F 75.9 °F 79% 29.98 in 10.0 mi SE 13.8 mph - 0.01 in   Mostly Cloudy
11:38 AM 78.1 °F - 73.9 °F 87% 29.98 in 2.0 mi SSE 17.3 mph 28.8 mph 0.09 in Rain Heavy Rain
11:53 AM 79.0 °F - 75.9 °F 90% 29.98 in 8.0 mi SSE 6.9 mph - 0.24 in Rain Rain
12:00 PM 77.0 °F - 73.9 °F 90% 29.97 in 2.0 mi ESE 13.8 mph 23.0 mph 0.18 in Rain Heavy Rain
12:12 PM 80.1 °F 85.8 °F 77.0 °F 90% 29.97 in 8.0 mi SSE 5.8 mph - 0.20 in Rain Light Rain
12:34 PM 77.0 °F - 73.9 °F 90% 29.97 in 8.0 mi South 6.9 mph 27.6 mph 0.38 in Rain Rain
12:41 PM 80.1 °F 85.8 °F 77.0 °F 90% 29.96 in 8.0 mi SSE 10.4 mph - 0.40 in Rain , Thunderstorm Thunderstorms and Rain
12:53 PM 81.0 °F 88.6 °F 78.1 °F 91% 29.97 in 8.0 mi South 12.7 mph - 0.41 in Rain , Thunderstorm Thunderstorms and Rain
12:57 PM 80.1 °F 85.8 °F 77.0 °F 90% 29.96 in 2.5 mi South 15.0 mph - 0.05 in Rain , Thunderstorm Thunderstorms and Rain
1:53 PM 84.0 °F 96.0 °F 79.0 °F 85% 29.95 in 10.0 mi SSE 10.4 mph 18.4 mph 0.25 in   Mostly Cloudy
2:53 PM 86.0 °F 96.0 °F 75.9 °F 72% 29.93 in 10.0 mi SE 13.8 mph - N/A   Clear
3:42 PM 77.0 °F - 72.0 °F 84% 29.93 in 1.8 mi SSW 17.3 mph 25.3 mph N/A   Overcast
3:49 PM 75.2 °F - 71.6 °F 89% 29.94 in 1.2 mi South 9.2 mph - N/A   Overcast
3:53 PM 75.9 °F - 73.0 °F 91% 29.94 in 4.0 mi SSW 3.5 mph - N/A   Overcast
4:00 PM 75.9 °F - 73.9 °F 94% 29.93 in 1.8 mi SE 3.5 mph - N/A   Overcast
4:03 PM 77.0 °F - 73.9 °F 90% 29.93 in 3.0 mi ESE 5.8 mph - N/A   Overcast
4:53 PM 79.0 °F - 75.0 °F 88% 29.94 in 10.0 mi West 4.6 mph - N/A   Mostly Cloudy
5:53 PM 80.1 °F 84.2 °F 73.0 °F 79% 29.94 in 10.0 mi SE 4.6 mph - N/A   Clear
6:53 PM 78.1 °F - 73.9 °F 87% 29.95 in 10.0 mi Calm Calm - N/A   Clear
7:53 PM 77.0 °F - 75.0 °F 94% 29.95 in 10.0 mi East 3.5 mph - N/A   Clear
8:53 PM 79.0 °F - 75.9 °F 90% 29.98 in 10.0 mi SSE 3.5 mph - N/A   Partly Cloudy
9:53 PM 79.0 °F - 77.0 °F 94% 29.99 in 10.0 mi Calm Calm - N/A   Clear
10:53 PM 79.0 °F - 75.9 °F 90% 29.99 in 10.0 mi SE 4.6 mph - N/A   Scattered Clouds
11:53 PM 79.0 °F - 75.9 °F 90% 29.99 in 10.0 mi SE 3.5 mph - N/A   Scattered Clouds